STARLINK-5924 (55963 NORAD) Tracking and Keplerian Element Data

This shows tracking and keplerian element data for the satellite.

Feedback or suggestion? Click here.




ElementValue
Catalog55963
NameSTARLINK-5924
Epoch Orbit839
Epoch Day126.86605342
Epoch Year2023
RAAN40.2031
Inclination69.9983
Eccentricity0.0003925
Argument of Perigee265.3746
Mean Anonmoly94.7001
Mean Motion15.69934366
Decay Rate2.315E-05
L11 55963U 23037BB 23126.86605342 .00002315 00000+0 21009-4 0 9997
L22 55963 69.9983 40.2031 0003925 265.3746 94.7001 15.69934366 8399



Live tracking and technical data element details for STARLINK-5924 (NORAD 55963). STARLINK-5924 can be tracked NOW for your location showing map with azimuth and elevation plus other details from your city location.







IsCatalogInMostPopularTable: catalog: 55963, numindb: 9
Update: records affected: 1



GetName: 55963 STARLINK-5924

Hit Count: updated at: Tue, 06 Jun 2023 02:50:42 GMT